| time (UTC) | temp F | wind direction | speed knots | gust knots | rain 1hr in | rain 24hr in | rain mn in | humidity % | barometer mb |
| 20260504050005 | 39 | 20 | 0.0 | 0.0 | 0.00 | 0.00 | 0.00 | 78 | 1014.3 |
| 20260504044506 | 39 | 20 | 0.0 | 0.0 | 0.00 | 0.00 | 0.00 | 81 | 1014.2 |
| 20260504043002 | 39 | 20 | 0.0 | 0.0 | 0.00 | 0.00 | 0.00 | 82 | 1014.3 |
| 20260504041600 | 40 | 20 | 0.0 | 0.9 | 0.00 | 0.00 | 0.00 | 82 | 1014.3 |
| 20260504040112 | 39 | 20 | 0.0 | 0.0 | 0.00 | 0.00 | 0.00 | 82 | 1014.1 |
| 20260504034607 | 40 | 20 | 0.0 | 0.0 | 0.00 | 0.00 | 0.00 | 81 | 1014.0 |
| 20260504033056 | 41 | 20 | 0.0 | 0.0 | 0.00 | 0.00 | 0.00 | 80 | 1014.0 |
| 20260504031555 | 42 | 20 | 0.0 | 0.0 | 0.00 | 0.00 | 0.00 | 80 | 1013.9 |
| 20260504030054 | 42 | 21 | 0.0 | 0.0 | 0.00 | 0.00 | 0.00 | 78 | 1013.7 |
| 20260504024558 | 42 | 20 | 0.0 | 0.9 | 0.00 | 0.00 | 0.00 | 78 | 1013.8 |
| 20260504023054 | 43 | 20 | 0.0 | 0.9 | 0.00 | 0.00 | 0.00 | 75 | 1013.6 |
| 20260504021553 | 43 | 20 | 0.0 | 0.9 | 0.00 | 0.00 | 0.00 | 75 | 1013.7 |
| 20260504020052 | 44 | 20 | 0.0 | 0.0 | 0.00 | 0.00 | 0.00 | 71 | 1013.7 |
| 20260504014553 | 45 | 20 | 0.0 | 0.0 | 0.00 | 0.00 | 0.00 | 69 | 1013.6 |
| 20260504013103 | 46 | 21 | 0.0 | 0.0 | 0.00 | 0.00 | 0.00 | 66 | 1013.5 |
| 20260504011551 | 47 | 20 | 0.0 | 0.0 | 0.00 | 0.00 | 0.00 | 63 | 1013.3 |
| 20260504010058 | 48 | 20 | 0.0 | 0.0 | 0.00 | 0.00 | 0.00 | 61 | 1013.2 |
| 20260504004605 | 50 | 20 | 0.0 | 0.0 | 0.00 | 0.00 | 0.00 | 55 | 1013.1 |
| 20260504003050 | 51 | 21 | 0.0 | 0.0 | 0.00 | 0.00 | 0.00 | 54 | 1013.0 |
| 20260504001549 | 53 | 21 | 0.0 | 0.0 | 0.00 | 0.00 | 0.00 | 49 | 1012.9 |
| 20260504000048 | 55 | 20 | 0.0 | 0.9 | 0.00 | 0.00 | 0.00 | 46 | 1012.7 |
| 20260503234549 | 56 | 22 | 0.0 | 1.7 | 0.00 | 0.00 | 0.00 | 42 | 1012.6 |
| 20260503233048 | 57 | 19 | 0.0 | 2.6 | 0.00 | 0.00 | 0.00 | 41 | 1012.4 |
| 20260503231549 | 58 | 111 | 0.0 | 1.7 | 0.00 | 0.00 | 0.00 | 40 | 1012.4 |
| 20260503230054 | 59 | 252 | 0.0 | 2.6 | 0.00 | 0.00 | 0.00 | 41 | 1012.3 |
| 20260503224546 | 61 | 335 | 0.0 | 3.5 | 0.00 | 0.00 | 0.00 | 36 | 1012.4 |
| 20260503223046 | 61 | 25 | 0.9 | 4.3 | 0.00 | 0.00 | 0.00 | 37 | 1012.3 |
| 20260503221545 | 61 | 25 | 2.6 | 7.0 | 0.00 | 0.00 | 0.00 | 39 | 1012.4 |
| 20260503220045 | 61 | 39 | 0.9 | 5.2 | 0.00 | 0.00 | 0.00 | 39 | 1012.5 |
| 20260503214547 | 61 | 172 | 0.0 | 4.3 | 0.00 | 0.00 | 0.00 | 38 | 1012.5 |
| 20260503213044 | 61 | 305 | 2.6 | 8.7 | 0.00 | 0.00 | 0.00 | 35 | 1012.5 |
| 20260503211542 | 62 | 288 | 1.7 | 3.5 | 0.00 | 0.00 | 0.00 | 35 | 1012.3 |
| 20260503210041 | 61 | 63 | 2.6 | 6.1 | 0.00 | 0.00 | 0.00 | 34 | 1012.4 |
| 20260503204540 | 61 | 34 | 3.5 | 7.0 | 0.00 | 0.00 | 0.00 | 37 | 1012.4 |
| 20260503203044 | 60 | 333 | 1.7 | 6.1 | 0.00 | 0.00 | 0.00 | 36 | 1012.5 |
| 20260503201543 | 60 | 328 | 2.6 | 7.8 | 0.00 | 0.00 | 0.00 | 38 | 1012.5 |
| 20260503200038 | 59 | 70 | 3.5 | 8.7 | 0.00 | 0.00 | 0.00 | 37 | 1012.7 |
| 20260503194536 | 60 | 27 | 4.3 | 10.4 | 0.00 | 0.00 | 0.00 | 38 | 1013.0 |
| 20260503193040 | 60 | 61 | 3.5 | 7.8 | 0.00 | 0.00 | 0.00 | 38 | 1013.1 |
| 20260503191539 | 60 | 27 | 1.7 | 8.7 | 0.00 | 0.00 | 0.00 | 37 | 1013.3 |
| 20260503190035 | 60 | 292 | 0.9 | 5.2 | 0.00 | 0.00 | 0.00 | 37 | 1013.5 |
| 20260503184534 | 59 | 56 | 1.7 | 8.7 | 0.00 | 0.00 | 0.00 | 36 | 1013.6 |
| 20260503183032 | 59 | 340 | 0.9 | 8.7 | 0.00 | 0.00 | 0.00 | 41 | 1013.9 |
| 20260503181529 | 58 | 47 | 0.9 | 7.0 | 0.00 | 0.00 | 0.00 | 37 | 1014.0 |
| 20260503180040 | 58 | 71 | 4.3 | 7.8 | 0.00 | 0.00 | 0.00 | 37 | 1014.0 |
| 20260503174527 | 57 | 64 | 3.5 | 11.3 | 0.00 | 0.00 | 0.00 | 40 | 1014.2 |
| 20260503173024 | 56 | 60 | 3.5 | 8.7 | 0.00 | 0.00 | 0.00 | 42 | 1014.0 |
| 20260503171526 | 56 | 41 | 2.6 | 7.8 | 0.00 | 0.00 | 0.00 | 43 | 1014.4 |
| 20260503081517 | 43 | 349 | 0.0 | 4.3 | 0.00 | 0.00 | 0.00 | 68 | 1012.8 |
| 20260503071510 | 43 | 54 | 1.7 | 5.2 | 0.00 | 0.00 | 0.00 | 70 | 1012.4 |